LEGION 4

Last updated on Sun Apr 12 2026 00:02:36 GMT+0000 (Coordinated Universal Time)

1 60453U 24146B 26101.50004693 .00003302 00000+0 18474-3 0 9996 2 60453 45.0002 119.9163 0015441 297.7648 62.1664 15.15495142 90752
UTC large
Height (km)
Speed (km/s)
/
Latitude / Longitude
Inclination (degrees)
Orbital Period (minutes)
Azimuth
Elevation
Range (km)
Doppler Factor

Next 0 passes for location: London (51.5072 / 0.1276)

Sorry there are no passes over London.